EW1890 Weather Reports


Display with metric or nautical units.
time (UTC)temp
F
wind
direction
speed
MPH
gust
MPH
rain 1hr
in
rain 24hr
in
rain mn
in
humidity
%
barometer
mb
20260504173821 62 111 3.0 10.0 0.00 0.00 0.00 25 1011.0
20260504173309 62 111 2.0 9.0 0.00 0.00 0.00 25 1011.0
20260504172817 62 111 1.0 9.0 0.00 0.00 0.00 27 1011.1
20260504172319 61 121 5.0 9.0 0.00 0.00 0.00 28 1011.1
20260504171806 60 61 0.0 9.0 0.00 0.00 0.00 28 1011.1
20260504171313 60 17 3.0 13.0 0.00 0.00 0.00 27 1011.1
20260504170823 61 5 5.0 13.0 0.00 0.00 0.00 26 1011.0
20260504170330 60 308 1.0 7.0 0.00 0.00 0.00 28 1011.2
20260504160312 57 106 7.0 11.0 0.00 0.00 0.00 34 1011.3
20260504150807 50 109 1.0 4.0 0.00 0.00 0.00 41 1011.9
20260504150315 49 103 0.0 3.0 0.00 0.00 0.00 41 1012.0
20260504141321 41 72 0.0 0.0 0.00 0.00 0.00 55 1012.1
20260504140829 40 72 0.0 0.0 0.00 0.00 0.00 58 1012.1
20260504140311 39 72 0.0 0.0 0.00 0.00 0.00 59 1012.1
20260504130806 31 336 0.0 0.0 0.00 0.00 0.00 66 1012.0
20260504130316 30 336 0.0 2.0 0.00 0.00 0.00 67 1012.0
20260504120313 28 337 0.0 0.0 0.00 0.00 0.00 67 1011.8
20260504110310 28 336 0.0 0.0 0.00 0.00 0.00 67 1012.0
20260504100315 28 64 3.0 4.0 0.00 0.00 0.00 66 1012.1
20260504081823 32 94 0.0 0.0 0.00 0.00 0.00 66 1012.6
20260504081305 32 94 0.0 3.0 0.00 0.00 0.00 66 1012.6
20260504080813 32 94 0.0 3.0 0.00 0.00 0.00 65 1012.6
20260504080322 32 125 0.0 0.0 0.00 0.00 0.00 64 1012.7
20260504070317 37 265 5.0 6.0 0.00 0.00 0.00 57 1012.8
20260504050324 44 252 5.0 8.0 0.00 0.00 0.00 46 1013.5
20260504045813 44 247 6.0 8.0 0.00 0.00 0.00 46 1013.5
20260504045321 43 253 6.0 8.0 0.00 0.00 0.00 47 1013.5
20260504044829 42 244 6.0 8.0 0.00 0.00 0.00 48 1013.5
20260504044310 42 248 5.0 8.0 0.00 0.00 0.00 47 1013.5
20260504043840 42 242 5.0 7.0 0.00 0.00 0.00 47 1013.5
20260504043307 43 240 4.0 6.0 0.00 0.00 0.00 45 1013.7
20260504042809 44 254 5.0 8.0 0.00 0.00 0.00 44 1013.7
20260504042316 45 249 6.0 8.0 0.00 0.00 0.00 43 1013.7
20260504041804 45 250 5.0 7.0 0.00 0.00 0.00 43 1013.7
20260504041312 45 250 6.0 7.0 0.00 0.00 0.00 43 1013.7
20260504040821 45 258 5.0 8.0 0.00 0.00 0.00 42 1013.7
20260504040330 45 271 5.0 8.0 0.00 0.00 0.00 43 1013.6
20260504035811 45 255 6.0 8.0 0.00 0.00 0.00 43 1013.7
20260504035320 45 252 6.0 7.0 0.00 0.00 0.00 43 1013.7
20260504034808 45 251 5.0 7.0 0.00 0.00 0.00 42 1013.7
20260504034316 46 242 5.0 7.0 0.00 0.00 0.00 42 1013.6
20260504033817 46 244 5.0 6.0 0.00 0.00 0.00 41 1013.6
20260504033309 47 236 4.0 7.0 0.00 0.00 0.00 41 1013.5
20260504032834 47 240 4.0 7.0 0.00 0.00 0.00 40 1013.5
20260504032304 47 238 5.0 7.0 0.00 0.00 0.00 39 1013.5
20260504031814 47 236 5.0 7.0 0.00 0.00 0.00 39 1013.4
20260504031314 47 225 5.0 7.0 0.00 0.00 0.00 39 1013.4
20260504030820 48 240 5.0 8.0 0.00 0.00 0.00 38 1013.3
20260504030309 49 235 5.0 8.0 0.00 0.00 0.00 37 1013.3
20260504025810 49 231 6.0 8.0 0.00 0.00 0.00 37 1013.3
20260504025318 49 232 6.0 8.0 0.00 0.00 0.00 36 1013.3
20260504024807 50 233 6.0 8.0 0.00 0.00 0.00 36 1013.2
20260504024336 50 230 6.0 8.0 0.00 0.00 0.00 36 1013.1
20260504023845 51 230 6.0 7.0 0.00 0.00 0.00 35 1013.1
20260504023333 52 229 5.0 7.0 0.00 0.00 0.00 34 1013.0
20260504022813 52 231 4.0 6.0 0.00 0.00 0.00 34 1013.0
20260504022345 53 225 4.0 8.0 0.00 0.00 0.00 32 1013.0
20260504021809 54 227 6.0 10.0 0.00 0.00 0.00 31 1013.0
20260504021317 55 215 7.0 10.0 0.00 0.00 0.00 31 1013.0
20260504020825 56 219 7.0 13.0 0.00 0.00 0.00 30 1013.0
20260504020306 57 231 8.0 13.0 0.00 0.00 0.00 29 1013.0
20260504015814 57 209 9.0 13.0 0.00 0.00 0.00 29 1012.8
20260504015305 58 217 8.0 15.0 0.00 0.00 0.00 28 1012.8
20260504014804 58 215 10.0 15.0 0.00 0.00 0.00 27 1012.8
20260504014313 59 227 10.0 18.0 0.00 0.00 0.00 27 1012.8
20260504013850 59 219 13.0 18.0 0.00 0.00 0.00 25 1012.9
20260504013310 60 227 12.0 17.0 0.00 0.00 0.00 25 1012.9
20260504012839 60 236 12.0 18.0 0.00 0.00 0.00 24 1012.9
20260504012327 61 213 11.0 18.0 0.00 0.00 0.00 24 1012.9
20260504011815 61 236 9.0 18.0 0.00 0.00 0.00 24 1013.0
20260504011324 62 248 11.0 16.0 0.00 0.00 0.00 23 1012.9
20260504010805 62 226 10.0 16.0 0.00 0.00 0.00 22 1013.0
20260504010314 62 242 11.0 16.0 0.00 0.00 0.00 22 1012.9
20260504005844 63 232 11.0 18.0 0.00 0.00 0.00 22 1012.9
20260504005312 63 244 10.0 18.0 0.00 0.00 0.00 22 1012.9
20260504004821 63 226 12.0 17.0 0.00 0.00 0.00 21 1013.0
20260504004322 63 234 12.0 20.0 0.00 0.00 0.00 22 1013.0
20260504003810 63 220 14.0 21.0 0.00 0.00 0.00 20 1013.0
20260504003318 64 223 15.0 21.0 0.00 0.00 0.00 20 1013.0
20260504002827 64 234 16.0 21.0 0.00 0.00 0.00 20 1013.0
20260504002329 65 209 12.0 20.0 0.00 0.00 0.00 19 1013.0
20260504001815 65 223 14.0 20.0 0.00 0.00 0.00 20 1013.0
20260504001324 65 234 13.0 19.0 0.00 0.00 0.00 18 1013.0
20260504000811 65 267 7.0 18.0 0.00 0.00 0.00 18 1013.0
20260504000313 65 234 11.0 19.0 0.00 0.00 0.00 18 1013.1
20260503235821 66 219 14.0 18.0 0.00 0.00 0.00 18 1013.0
20260503235310 66 215 13.0 23.0 0.00 0.00 0.00 17 1013.1
20260503234818 66 269 15.0 24.0 0.00 0.00 0.00 17 1013.1
20260503234319 67 218 16.0 24.0 0.00 0.00 0.00 17 1013.0
20260503233807 66 340 6.0 19.0 0.00 0.00 0.00 18 1013.1
20260503233315 66 311 12.0 17.0 0.00 0.00 0.00 18 1013.2
20260503232817 66 271 8.0 15.0 0.00 0.00 0.00 17 1013.2
20260503232306 65 268 5.0 18.0 0.00 0.00 0.00 18 1013.2
20260503231813 63 213 12.0 17.0 0.00 0.00 0.00 19 1013.3
20260503231321 63 230 9.0 17.0 0.00 0.00 0.00 18 1013.3
20260503230829 63 242 9.0 14.0 0.00 0.00 0.00 18 1013.3
20260503230338 63 260 10.0 13.0 0.00 0.00 0.00 18 1013.5
20260503225815 64 260 7.0 16.0 0.00 0.00 0.00 18 1013.5
20260503225345 66 242 10.0 19.0 0.00 0.00 0.00 17 1013.4
20260503224811 67 251 9.0 19.0 0.00 0.00 0.00 16 1013.5
20260503224341 67 259 10.0 19.0 0.00 0.00 0.00 16 1013.4
20260503223829 66 222 9.0 17.0 0.00 0.00 0.00 16 1013.4
20260503223338 67 213 11.0 17.0 0.00 0.00 0.00 16 1013.5
20260503222819 68 227 11.0 18.0 0.00 0.00 0.00 16 1013.4
20260503222306 68 211 9.0 20.0 0.00 0.00 0.00 16 1013.5
20260503221835 68 207 9.0 15.0 0.00 0.00 0.00 16 1013.5
20260503221344 68 287 9.0 21.0 0.00 0.00 0.00 16 1013.7
20260503220811 67 275 13.0 21.0 0.00 0.00 0.00 16 1013.7
20260503220312 68 269 12.0 22.0 0.00 0.00 0.00 16 1013.8
20260503215820 68 251 14.0 22.0 0.00 0.00 0.00 16 1014.0
20260503215308 67 257 11.0 18.0 0.00 0.00 0.00 17 1014.0
20260503214816 66 223 9.0 16.0 0.00 0.00 0.00 17 1014.1
20260503214317 64 219 10.0 13.0 0.00 0.00 0.00 18 1014.2
20260503213805 64 209 5.0 9.0 0.00 0.00 0.00 19 1014.2
20260503213312 63 160 0.0 12.0 0.00 0.00 0.00 18 1014.3
20260503212813 64 226 7.0 15.0 0.00 0.00 0.00 18 1014.5
20260503212321 64 240 6.0 15.0 0.00 0.00 0.00 17 1014.5
20260503211830 65 238 7.0 15.0 0.00 0.00 0.00 17 1014.5
20260503211316 66 216 10.0 15.0 0.00 0.00 0.00 18 1014.6
20260503210826 63 243 2.0 5.0 0.00 0.00 0.00 18 1014.6
20260503210313 63 209 1.0 12.0 0.00 0.00 0.00 17 1014.7
20260503205843 64 228 6.0 14.0 0.00 0.00 0.00 17 1014.7
20260503205330 64 224 7.0 16.0 0.00 0.00 0.00 17 1014.8
20260503204811 64 224 13.0 16.0 0.00 0.00 0.00 18 1014.8
20260503204320 64 249 4.0 8.0 0.00 0.00 0.00 17 1014.8
20260503203829 65 163 2.0 11.0 0.00 0.00 0.00 17 1014.8
20260503203316 66 188 6.0 22.0 0.00 0.00 0.00 16 1014.8
20260503202823 67 172 10.0 22.0 0.00 0.00 0.00 16 1015.0
20260503202312 66 194 12.0 16.0 0.00 0.00 0.00 16 1015.0
20260503201842 66 243 7.0 16.0 0.00 0.00 0.00 15 1015.0
20260503201329 65 197 3.0 13.0 0.00 0.00 0.00 15 1015.1
20260503200810 64 281 6.0 14.0 0.00 0.00 0.00 16 1015.1
20260503200319 65 157 7.0 19.0 0.00 0.00 0.00 15 1015.1
20260503195809 64 214 9.0 19.0 0.00 0.00 0.00 16 1015.3
20260503195310 64 217 7.0 13.0 0.00 0.00 0.00 16 1015.3
20260503194817 65 176 8.0 13.0 0.00 0.00 0.00 15 1015.3
20260503194327 67 221 6.0 14.0 0.00 0.00 0.00 15 1015.4
20260503193814 66 307 7.0 16.0 0.00 0.00 0.00 16 1015.4
20260503193322 64 232 9.0 25.0 0.00 0.00 0.00 17 1015.5
20260503192831 64 263 7.0 25.0 0.00 0.00 0.00 16 1015.6
20260503192318 64 189 4.0 8.0 0.00 0.00 0.00 16 1015.7
20260503191826 64 339 4.0 12.0 0.00 0.00 0.00 17 1015.6
20260503191313 64 163 5.0 14.0 0.00 0.00 0.00 17 1015.8
20260503190821 63 246 4.0 16.0 0.00 0.00 0.00 16 1016.1
20260503190329 65 227 6.0 13.0 0.00 0.00 0.00 16 1016.0
20260503185838 64 171 7.0 17.0 0.00 0.00 0.00 17 1016.1
20260503185319 64 175 11.0 26.0 0.00 0.00 0.00 16 1016.2
20260503184807 63 225 11.0 26.0 0.00 0.00 0.00 17 1016.2
20260503184315 62 227 5.0 9.0 0.00 0.00 0.00 18 1016.4
20260503183823 63 159 1.0 14.0 0.00 0.00 0.00 18 1016.4
20260503183304 64 171 8.0 16.0 0.00 0.00 0.00 18 1016.5
20260503182833 63 181 9.0 16.0 0.00 0.00 0.00 19 1016.5
20260503182320 63 190 6.0 12.0 0.00 0.00 0.00 19 1016.6
20260503181829 62 309 0.0 13.0 0.00 0.00 0.00 18 1016.9
20260503181316 63 290 3.0 14.0 0.00 0.00 0.00 17 1016.8
20260503180825 63 261 6.0 14.0 0.00 0.00 0.00 19 1016.9
20260503180307 64 196 4.0 8.0 0.00 0.00 0.00 20 1017.0
20260503175815 63 150 2.0 13.0 0.00 0.00 0.00 20 1017.1
20260503175323 63 101 5.0 13.0 0.00 0.00 0.00 21 1017.1
20260503174832 63 180 1.0 9.0 0.00 0.00 0.00 23 1017.2
20260503174320 63 119 3.0 9.0 0.00 0.00 0.00 23 1017.3